Home   Weather   Quesnel   Past weeks

Flag for Canada Past Weather in Quesnel, British Columbia, Canada — Yesterday and Last 2 Weeks

Now
41 °F

Sunny.


Feels Like: 36 °F
Forecast: 37 / 41 °F
Wind: 7 mph from Southeast

Location: Quesnel Airport

Current Time: Jan 18, 2017 at 10:38:00 am

Latest Report: Jan 18, 2017 at 10:00 am


Visibility: 9 mi

Pressure: 29.18 "Hg

Humidity: 70%

Dew Point: 32 °F

Location of QuesnelLocation

Past Weather in Quesnel — Graph

°F

Quesnel Temperature Yesterday

Maximum temperature yesterday: 46 °F (at 3:00 pm)
Minimum temperature yesterday: 37 °F (at 5:30 am)
Average temperature yesterday: 42 °F

High & Low Weather Summary for the Past Weeks

 TemperatureHumidityPressure
High46 °F (Jan 17, 3:00 pm)93% (Jan 6, 4:00 pm)30.75 "Hg (Jan 6, 4:00 pm)
Low-20 °F (Jan 10, 7:00 am)57% (Jan 17, 3:00 pm)29.15 "Hg (Jan 18, 5:00 am)
Average10 °F77%30.18 "Hg
* Reported Jan 3 9:09 am — Jan 18 9:00 am, Quesnel, Weather by CustomWeather, © 2017

Note: Actual official high and low records may vary slightly from our data, if they occured in-between our weather recording intervals... More about our weather records

Advertising

Quesnel Weather History for the Previous 24 Hours

Scroll right to see more
 ConditionsComfort  
Time TempWeatherWind HumidityBarometerVisibility
9:00 am
Wed, Jan 18
39 °FSunny.9 mph70%29.18 "Hg9 mi
8:00 am39 °FClear.15 mph70%29.17 "Hg9 mi
7:00 am41 °FPassing clouds.14 mph66%29.15 "Hg9 mi
6:00 am43 °FOvercast.13 mph61%29.16 "Hg9 mi
5:00 am43 °FPassing clouds.17 mph66%29.15 "Hg9 mi
4:00 am43 °FOvercast.9 mph66%29.17 "Hg9 mi
3:00 am43 °FPassing clouds.13 mph66%29.16 "Hg9 mi
2:00 am43 °FPassing clouds.9 mph66%29.17 "Hg9 mi
1:00 am43 °FOvercast.8 mph66%29.18 "Hg9 mi
12:00 am41 °FMostly cloudy.10 mph70%29.18 "Hg9 mi
11:00 pm
Tue, Jan 17
43 °FMostly cloudy.15 mph66%29.20 "Hg9 mi
10:00 pm43 °FMostly cloudy.15 mph66%29.19 "Hg9 mi
9:00 pm43 °FPassing clouds.10 mph66%29.22 "Hg9 mi
8:00 pm45 °FPassing clouds.12 mph61%29.21 "Hg9 mi
7:00 pm45 °FMostly cloudy.14 mph61%29.26 "Hg9 mi
6:00 pm45 °FMostly cloudy.15 mph61%29.28 "Hg9 mi
5:00 pm46 °FOvercast.13 mph57%29.30 "Hg9 mi
4:00 pm46 °FOvercast.9 mph57%29.31 "Hg9 mi
3:00 pm46 °FScattered clouds.8 mph57%29.33 "Hg9 mi
2:00 pm45 °FScattered clouds.12 mph66%29.35 "Hg9 mi
1:00 pm43 °FScattered clouds.14 mph66%29.38 "Hg9 mi
12:00 pm43 °FOvercast.12 mph71%29.41 "Hg9 mi
11:26 am43 °FMostly cloudy.12 mph71%29.42 "Hg9 mi
11:00 am41 °FLight rain. Mostly cloudy.12 mph76%29.45 "Hg9 mi
10:45 am41 °FLight rain. Mostly cloudy.17 mph76%29.46 "Hg9 mi
10:00 am41 °FPartly sunny.12 mph76%29.47 "Hg9 mi
Weather by CustomWeather, © 2017

See weather overviewHow to use our weather pages